Zurück zum Katalog

COSMOS 839 DEB

AktivUNKNOWN
NORAD 18272·DEBRIS·🇷🇺 Russia

Gestartet Jul 8, 1976 von Plesetsk Cosmodrome

Loading…

Nächste Überflüge (nächste 24 Stunden)

TLE

AktuellSource: Space-Track

Epoche: Sep 13, 2026, 08:54 UTC

1 18272U 76067BL  26256.37090574  .00000011  00000-0  21715-3 0  9993
2 18272  65.8538 156.4196 0690180 202.0360 278.9728 12.40673059775319

Verfolge COSMOS 839 DEB in Echtzeit mit AllMySat

Download on the App Store